sat.trackr.live / text

‹ back to catalog

FENGYUN 4B

NORAD 48808 · 2021-047A

PAYLOAD ACTIVE UNKNOWN

§ Identity

Operator
Country
PRC
Launch date
2021-06-02
Launch site
XICLF
Launch vehicle
Mass (kg)
RCS (m²)

Purposes: comms

External: N2YO · Heavens-Above · Gunter

§ Orbital elements

Epoch: 2026-09-08T23:35:38.486112Z

Period
1,436.15 min
Inclination
0.3586°
Eccentricity
0.0007698
Mean motion
1.00267999 rev/d
Perigee alt
35,755.2 km
Apogee alt
35,820.1 km
Semi-major
42,165.8 km
B*
0.0000e+0
RAAN
81.0672°
Arg perigee
273.7754°
Mean anomaly
91.7875°
Rev number
1,941

§ Raw data

FENGYUN 4B1 48808U 21047A   26251.98308433 -.00000351  00000+0  00000+0 0  99942 48808   0.3586  81.0672 0007698 273.7754  91.7875  1.00267999 19416

JSON: /api/v1/satellites/48808 · /tle

For live sub-satellite position, see the globe view (requires WebGL).

§ Visibility from observer

Set your observer location to see the next 7 days of passes ≥ 10°. The values pass through the URL so the page stays shareable.

No JS? Fill the form by hand. The geolocation button needs JavaScript.